Figari, France

3:14 AM CEST on August 29, 2016 (GMT +0200)
Figari-Sud Corse

Weather History for LFKF - November, 2012

Change the Weather History Date:

Tuesday, November 13, 2012

  Actual Average Record
Temperature  
Mean Temperature 66 °F -  
Max Temperature 71 °F 58 °F 77 °F (2000)
Min Temperature 60 °F 47 °F 42 °F (1998)
Growing Degree Days 16 (Base 50)    
Moisture  
Dew Point 60 °F    
Average Humidity 85    
Maximum Humidity 94    
Minimum Humidity 69    
Precipitation  
Precipitation 0.00 in - - ()
Sea Level Pressure  
Sea Level Pressure 30.12 in    
Wind  
Wind Speed 11 mph ()    
Max Wind Speed 21 mph    
Max Gust Speed 34 mph    
Visibility 6.2 miles    
Events      
Averages and records for this station are not official NWS values.
T = Trace of Precipitation, MM = Missing Value Source: Averaged Metar Reports

Daily Weather History Graph

Daily Weather History Graph

Search for Another Location

Airport or City:

Trip Planner

Search our weather history database for the weather conditions in past years. The results will help you decide how hot, cold, wet, or windy it might be!

Date:

Astronomy

Nov. 13, 2012 Rise Set
Actual Time 7:10 AM CET 5:05 PM CET
Civil Twilight 6:40 AM CET 5:34 PM CET
Nautical Twilight 6:07 AM CET 6:08 PM CET
Astronomical Twilight 5:34 AM CET 6:40 PM CET
Moon 6:28 AM CET (11/13) 4:44 PM CET (11/13)
Length of Visible Light 10h 54m
Length of Day
9h 55m
Waning Crescent, 0% of the Moon is Illuminated
Nov 13
Waning Crescent
Nov 13
New
Nov 20
First Quarter
Nov 28
Full
Dec 6
Last Quarter

Hourly Weather History & Observations

Time (CET) Temp. Dew Point Humidity Pressure Visibility Wind Dir Wind Speed Gust Speed Precip Events Conditions
12:00 AM 62.6 °F 59.0 °F 88% 30.12 in 6.2 mi NE 11.5 mph - N/A   Overcast
12:30 AM 60.8 °F 59.0 °F 94% 30.09 in 6.2 mi ENE 10.4 mph - N/A   Unknown
1:00 AM 60.8 °F 59.0 °F 94% 30.09 in 6.2 mi ENE 6.9 mph - N/A   Unknown
1:30 AM 60.8 °F 59.0 °F 94% 30.09 in 6.2 mi NE 10.4 mph - N/A   Unknown
2:00 AM 62.6 °F 59.0 °F 88% 30.09 in 6.2 mi East 9.2 mph - N/A   Mostly Cloudy
2:30 AM 60.8 °F 59.0 °F 94% 30.06 in 6.2 mi NE 13.8 mph - N/A   Unknown
3:00 AM 60.8 °F 59.0 °F 94% 30.09 in 6.2 mi ENE 9.2 mph - N/A   Unknown
3:30 AM 60.8 °F 59.0 °F 94% 30.09 in 6.2 mi East 9.2 mph - N/A   Unknown
4:00 AM 60.8 °F 59.0 °F 94% 30.09 in 6.2 mi NE 11.5 mph - N/A   Overcast
4:30 AM 62.6 °F 59.0 °F 88% 30.09 in 6.2 mi ENE 10.4 mph - N/A   Unknown
5:00 AM 62.6 °F 59.0 °F 88% 30.09 in 6.2 mi ENE 12.7 mph - N/A   Unknown
5:30 AM 60.8 °F 57.2 °F 88% 30.12 in 6.2 mi NE 10.4 mph - N/A   Unknown
6:00 AM 60.8 °F 57.2 °F 88% 30.12 in 6.2 mi ENE 10.4 mph - N/A   Unknown
6:30 AM 60.8 °F 57.2 °F 88% 30.12 in 6.2 mi ENE 8.1 mph - N/A   Unknown
7:00 AM 60.8 °F 57.2 °F 88% 30.12 in 6.2 mi ENE 11.5 mph - N/A   Unknown
7:30 AM 60.8 °F 57.2 °F 88% 30.15 in 6.2 mi NE 9.2 mph - N/A   Scattered Clouds
8:00 AM 60.8 °F 57.2 °F 88% 30.15 in 6.2 mi ENE 10.4 mph - N/A   Mostly Cloudy
8:30 AM 62.6 °F 59.0 °F 88% 30.15 in 6.2 mi NE 12.7 mph - N/A   Scattered Clouds
9:00 AM 64.4 °F 59.0 °F 83% 30.15 in 6.2 mi ENE 6.9 mph - N/A   Scattered Clouds
9:30 AM 66.2 °F 60.8 °F 83% 30.15 in 6.2 mi East 6.9 mph - N/A   Mostly Cloudy
10:00 AM 66.2 °F 60.8 °F 83% 30.15 in 6.2 mi ENE 10.4 mph - N/A   Mostly Cloudy
10:30 AM 69.8 °F 60.8 °F 73% 30.15 in 6.2 mi ENE 11.5 mph - N/A   Partly Cloudy
11:00 AM 68.0 °F 60.8 °F 78% 30.15 in 6.2 mi ENE 12.7 mph - N/A   Partly Cloudy
11:30 AM 69.8 °F 62.6 °F 78% 30.12 in 6.2 mi ENE 16.1 mph - N/A   Unknown
12:00 PM 71.6 °F 62.6 °F 73% 30.12 in 6.2 mi ENE 16.1 mph - N/A   Partly Cloudy
12:30 PM 69.8 °F 60.8 °F 73% 30.12 in 6.2 mi ENE 17.3 mph - N/A   Unknown
1:00 PM 71.6 °F 60.8 °F 69% 30.12 in 6.2 mi ENE 18.4 mph - N/A   Unknown
1:30 PM 69.8 °F 60.8 °F 73% 30.12 in 6.2 mi ENE 19.6 mph 32.2 mph N/A   Partly Cloudy
2:00 PM 68.0 °F 60.8 °F 78% 30.12 in 6.2 mi ENE 20.7 mph 34.5 mph N/A   Unknown
2:30 PM 69.8 °F 62.6 °F 78% 30.12 in 6.2 mi ENE 17.3 mph - N/A   Unknown
3:00 PM 68.0 °F 60.8 °F 78% 30.12 in 6.2 mi ENE 17.3 mph 32.2 mph N/A   Unknown
3:30 PM 68.0 °F 60.8 °F 78% 30.12 in 6.2 mi ENE 17.3 mph - N/A   Unknown
4:00 PM 66.2 °F 60.8 °F 83% 30.12 in 6.2 mi ENE 16.1 mph 28.8 mph N/A   Unknown
4:30 PM 66.2 °F 60.8 °F 83% 30.12 in 6.2 mi ENE 16.1 mph - N/A   Unknown
5:00 PM 66.2 °F 60.8 °F 83% 30.12 in 6.2 mi ENE 15.0 mph - N/A   Unknown
5:30 PM 66.2 °F 60.8 °F 83% 30.12 in 6.2 mi ENE 15.0 mph - N/A   Unknown
6:00 PM 64.4 °F 60.8 °F 88% 30.12 in 6.2 mi ENE 13.8 mph - N/A   Unknown
6:30 PM 64.4 °F 60.8 °F 88% 30.12 in 6.2 mi NE 13.8 mph - N/A   Unknown
7:00 PM 64.4 °F 60.8 °F 88% 30.12 in 5.6 mi NE 13.8 mph - N/A   Unknown
7:30 PM 64.4 °F 60.8 °F 88% 30.12 in 6.2 mi NE 12.7 mph - N/A   Unknown
8:00 PM 64.4 °F 60.8 °F 88% 30.12 in 6.2 mi ENE 11.5 mph - N/A   Unknown
8:30 PM 64.4 °F 60.8 °F 88% 30.12 in 6.2 mi NE 11.5 mph - N/A   Unknown
9:00 PM 64.4 °F 60.8 °F 88% 30.15 in 6.2 mi NE 11.5 mph - N/A   Unknown
9:30 PM 64.4 °F 62.6 °F 94% 30.15 in 5.6 mi ENE 13.8 mph 25.3 mph N/A   Overcast
10:00 PM 64.4 °F 60.8 °F 88% 30.15 in 6.2 mi ENE 12.7 mph - N/A   Overcast
10:30 PM 64.4 °F 60.8 °F 88% 30.15 in 6.2 mi ENE 10.4 mph - N/A   Mostly Cloudy
11:00 PM 64.4 °F 60.8 °F 88% 30.15 in 6.2 mi ENE 11.5 mph - N/A   Overcast
11:30 PM 64.4 °F 60.8 °F 88% 30.15 in 6.2 mi ENE 11.5 mph - N/A   Overcast